CST,Max TemperatureF,Mean TemperatureF,Min TemperatureF,Max Dew PointF,MeanDew PointF,Min DewpointF,Max Humidity, Mean Humidity, Min Humidity, Max Sea Level PressureIn, Mean Sea Level PressureIn, Min Sea Level PressureIn, Max VisibilityMiles, Mean VisibilityMiles, Min VisibilityMiles, Max Wind SpeedMPH, Mean Wind SpeedMPH, Max Gust SpeedMPH,PrecipitationIn, CloudCover, Events, WindDirDegrees
2011-12-1,69,48,26,30,14,7,53,32,11,30.15,30.03,29.97,10,10,7,25,9,30,0.00,0,,51
2011-12-2,53,42,32,37,29,25,87,70,51,30.24,30.15,30.00,10,10,8,28,17,32,0.00,3,,49
2011-12-3,60,50,39,41,37,32,93,66,36,30.10,30.00,29.91,10,10,10,17,7,23,0.00,5,,235
2011-12-4,53,44,35,37,34,28,93,72,54,30.11,30.03,29.88,10,10,4,22,10,26,0.00,5,,49
2011-12-5,37,32,26,34,29,23,100,87,75,30.17,30.10,30.05,10,9,0,23,9,26,0.20,7,,26
2011-12-6,35,27,19,21,19,16,93,77,48,30.30,30.23,30.19,10,10,3,24,15,28,0.00,5,,322
2011-12-7,51,32,14,19,14,5,93,54,21,30.36,30.28,30.20,10,10,10,12,6,16,0.00,0,,183
2011-12-8,62,40,19,25,18,12,86,52,14,30.19,30.14,30.08,10,10,10,14,6,21,0.00,0,,321
2011-12-9,53,40,28,27,22,16,64,49,28,,,,10,10,10,15,5,21,0.00,0,,37
2011-12-10,42,36,30,34,29,27,93,80,61,,,,10,10,9,18,10,,0.00,5,,42
2011-12-11,44,40,35,39,37,32,100,88,76,,,,10,10,10,14,6,16,0.00,8,,138
2011-12-12,57,46,35,43,39,34,100,80,55,,,,10,10,10,13,4,,0.00,0,,95
2011-12-13,64,53,42,43,40,37,87,65,37,,,,10,10,10,13,5,17,0.00,0,,92
2011-12-14,60,48,35,41,36,32,93,69,39,,,,10,10,10,12,5,16,0.00,0,,328
2011-12-15,53,46,37,34,27,23,81,52,33,,,,10,10,10,20,10,25,0.00,4,,24
2011-12-16,42,38,33,34,32,28,93,78,61,,,,10,10,10,18,13,23,0.00,5,,35
2011-12-17,44,42,39,41,37,32,87,80,75,,,,10,10,9,14,8,,0.00,8,,49
2011-12-18,51,42,33,43,39,34,100,84,62,,,,10,10,10,15,4,,0.00,2,,109
2011-12-19,51,43,35,43,31,19,93,65,28,,,,10,10,10,30,14,37,0.01,3,Thunderstorm,240
2011-12-20,46,36,24,28,25,19,100,70,43,,,,10,10,10,20,8,24,0.00,2,,16
2011-12-21,60,38,17,28,21,14,100,59,17,,,,10,10,10,22,7,28,0.00,0,,298
2011-12-22,51,38,24,32,25,19,86,62,41,,,,10,10,10,22,9,28,0.00,0,,336
2011-12-23,30,27,24,27,24,21,100,89,86,,,,10,8,1,25,21,30,0.00,7,,34
2011-12-24,30,27,24,27,23,19,93,85,74,,,,10,9,1,17,8,21,0.01,8,,354
2011-12-25,35,25,15,25,21,10,100,79,60,,,,10,10,10,15,5,26,0.00,6,,353
2011-12-26,44,30,15,23,16,12,100,69,31,,,,10,10,10,22,7,26,0.00,0,,282
2011-12-27,57,38,19,23,17,12,80,46,21,,,,10,10,10,14,8,17,0.00,0,,204
2011-12-28,62,44,26,19,16,12,60,36,15,,,,10,10,10,21,8,26,0.00,0,,310
2011-12-29,66,48,30,19,15,12,55,31,14,,,,10,10,10,25,11,26,0.00,0,,253
2011-12-30,66,50,35,27,20,12,48,29,21,,,,10,10,10,18,7,24,0.00,0,,306
2011-12-31,73,50,26,23,17,12,64,34,13,,,,10,10,10,20,7,25,0.00,0,,324